FW3222 Weather Reports


Display with metric or nautical units.
time (UTC)temp
F
wind
direction
speed
MPH
gust
MPH
rain 1hr
in
rain 24hr
in
rain mn
in
humidity
%
barometer
mb
20260831102757 69 219 0.0 0.0 0.00 0.18 0.18 76 1020.1
20260831102500 69 219 0.0 0.0 0.00 0.18 0.18 76 1020.1
20260831101744 70 219 0.0 0.0 0.00 0.18 0.18 76 1020.0
20260831101434 70 219 0.0 0.0 0.00 0.18 0.18 76 1019.8
20260831101136 69 219 0.0 0.0 0.00 0.18 0.18 76 1019.9
20260831100835 69 219 0.0 0.0 0.00 0.18 0.18 76 1019.9
20260831100526 69 219 0.0 0.0 0.00 0.18 0.18 76 1019.9
20260831100227 69 219 0.0 0.0 0.00 0.18 0.18 76 1019.9
20260831095503 69 218 0.0 0.0 0.00 0.18 0.18 76 1020.0
20260831095158 69 218 0.0 0.0 0.00 0.18 0.18 76 1020.0
20260831094848 70 218 0.0 0.0 0.00 0.18 0.18 76 1019.9
20260831094546 70 202 0.0 0.0 0.00 0.18 0.18 76 1020.0
20260831094247 70 202 0.0 0.0 0.00 0.18 0.18 76 1019.9
20260831093939 70 191 0.0 0.0 0.00 0.18 0.18 76 1019.9
20260831093642 70 192 0.0 0.0 0.00 0.18 0.18 76 1019.8
20260831093344 69 189 0.0 0.0 0.00 0.18 0.18 76 1019.8
20260831092616 69 69 0.0 0.0 0.00 0.18 0.18 75 1019.8
20260831091850 69 234 0.0 0.0 0.00 0.18 0.18 74 1019.7
20260831091546 69 234 0.0 0.0 0.00 0.18 0.18 74 1019.7
20260831090813 69 234 0.0 0.0 0.00 0.18 0.18 73 1019.6
20260831090504 69 234 0.0 0.0 0.00 0.18 0.18 73 1019.6
20260831090201 69 234 0.0 0.0 0.00 0.18 0.18 72 1019.5
20260831085436 69 234 0.0 0.0 0.00 0.18 0.18 71 1019.4
20260831085135 69 234 0.0 0.0 0.00 0.18 0.18 71 1019.3
20260831084834 69 234 0.0 0.0 0.00 0.18 0.18 71 1019.3
20260831084527 69 234 0.0 0.0 0.00 0.18 0.18 71 1019.3
20260831084228 69 234 0.0 0.0 0.00 0.18 0.18 71 1019.2
20260831083927 69 234 0.0 0.0 0.00 0.18 0.18 71 1019.2
20260831083620 69 234 0.0 0.0 0.00 0.18 0.18 70 1019.3
20260831083312 69 234 0.0 0.0 0.00 0.18 0.18 70 1019.2
20260831083005 69 234 0.0 0.0 0.00 0.18 0.18 70 1019.3
20260831082658 69 234 0.0 0.0 0.00 0.18 0.18 70 1019.2
20260831082400 69 234 0.0 0.0 0.00 0.18 0.18 70 1019.3
20260831081204 69 234 0.0 0.0 0.00 0.18 0.18 70 1019.3
20260831080851 69 234 0.0 0.0 0.00 0.18 0.18 70 1019.1
20260831080550 69 234 0.0 0.0 0.00 0.18 0.18 70 1019.2
20260831080253 69 234 0.0 0.0 0.00 0.18 0.18 70 1019.2
20260831075942 69 234 0.0 0.0 0.00 0.18 0.18 70 1019.3
20260831075644 69 234 0.0 0.0 0.00 0.18 0.18 70 1019.3
20260831075341 70 234 0.0 0.0 0.00 0.18 0.18 70 1019.2
20260831075029 70 234 0.0 0.0 0.00 0.18 0.18 70 1019.1
20260831074732 70 234 0.0 0.0 0.00 0.18 0.18 70 1019.2
20260831074436 70 234 0.0 0.0 0.00 0.18 0.18 70 1019.2
20260831074126 70 234 0.0 0.0 0.00 0.18 0.18 70 1019.3
20260831073815 70 304 0.0 0.0 0.00 0.18 0.18 69 1019.2
20260831073511 70 332 0.0 0.0 0.00 0.18 0.18 69 1019.2
20260831073159 70 332 0.0 0.0 0.00 0.18 0.18 68 1019.3
20260831072848 70 332 0.0 0.0 0.00 0.18 0.18 68 1019.4
20260831071658 70 332 0.0 0.0 0.00 0.18 0.18 68 1019.5
20260831070920 70 332 0.0 0.0 0.00 0.18 0.18 68 1019.4
20260831070623 70 332 0.0 0.0 0.00 0.18 0.18 68 1019.5
20260831070326 70 332 0.0 0.0 0.00 0.18 0.18 67 1019.5
20260831070025 70 332 0.0 0.0 0.00 0.18 0.18 67 1019.5
20260831065312 70 187 0.0 0.0 0.00 0.18 0.18 67 1019.3
20260831065014 70 187 0.0 0.0 0.00 0.18 0.18 67 1019.3
20260831064701 70 187 0.0 0.0 0.00 0.18 0.18 67 1019.4
20260831064358 70 187 0.0 0.0 0.00 0.18 0.18 67 1019.4
20260831064059 71 187 0.0 0.0 0.00 0.18 0.18 67 1019.4
20260831063752 71 187 0.0 0.0 0.00 0.18 0.18 67 1019.5
20260831063444 71 187 0.0 0.0 0.00 0.18 0.18 67 1019.6
20260831063142 71 187 0.0 0.0 0.00 0.18 0.18 67 1019.5
20260831062839 71 187 0.0 0.0 0.00 0.18 0.18 67 1019.5
20260831061703 71 187 0.0 0.0 0.00 0.18 0.18 66 1019.8
20260831061355 71 187 0.0 0.0 0.00 0.18 0.18 66 1019.9
20260831061048 71 187 0.0 0.0 0.00 0.18 0.18 66 1019.9
20260831060752 71 187 0.0 0.0 0.00 0.18 0.18 66 1019.9
20260831060451 71 187 0.0 0.0 0.00 0.18 0.18 66 1019.8
20260831060147 71 187 0.0 0.0 0.00 0.18 0.18 66 1019.7
20260831055838 71 187 0.0 0.0 0.00 0.18 0.18 66 1019.7
20260831055129 71 71 0.0 0.0 0.00 0.18 0.18 65 1019.6
20260831054833 71 71 0.0 0.0 0.00 0.18 0.18 65 1019.7
20260831054526 71 194 0.0 0.0 0.00 0.18 0.18 65 1019.8
20260831054228 71 203 0.0 0.0 0.00 0.16 0.17 65 1019.8
20260831053917 72 144 0.0 0.0 0.00 0.16 0.17 65 1019.8
20260831053614 72 105 0.0 0.0 0.00 0.16 0.17 65 1019.9
20260831053314 72 107 0.0 0.0 0.00 0.16 0.17 65 1019.9
20260831053002 72 107 0.0 0.0 0.04 0.16 0.17 65 1020.0
20260831052701 72 114 0.0 2.0 0.05 0.16 0.17 65 1020.0
20260831051938 72 217 0.0 0.0 0.13 0.16 0.17 64 1020.4
20260831051625 72 142 0.0 5.0 0.43 0.16 0.17 64 1020.3
20260831051321 73 147 1.0 5.0 1.10 0.12 0.13 64 1020.4
20260831051011 73 263 0.0 5.0 0.55 0.08 0.09 64 1020.6
20260831050658 73 268 0.0 3.0 0.43 0.04 0.05 63 1020.5
20260831045935 73 254 0.0 3.0 0.00 0.00 0.00 63 1020.5
20260831045635 73 219 0.0 1.0 0.00 0.00 0.00 64 1020.3
20260831044915 73 254 0.0 0.0 0.00 0.00 0.00 64 1020.0
20260831044605 73 240 0.0 0.0 0.00 0.00 0.00 63 1019.9
20260831044259 74 236 0.0 0.0 0.00 0.00 0.00 64 1019.9
20260831043949 74 236 0.0 0.0 0.00 0.00 0.00 64 1019.8
20260831043639 74 236 0.0 0.0 0.00 0.00 0.00 64 1019.8
20260831043334 74 236 0.0 0.0 0.00 0.00 0.00 64 1019.7
20260831043028 74 236 0.0 0.0 0.00 0.00 0.00 63 1019.7
20260831042713 74 236 0.0 0.0 0.00 0.00 0.00 63 1019.8
20260831042407 74 236 0.0 0.0 0.00 0.00 0.00 63 1019.8
20260831042056 74 236 0.0 0.0 0.00 0.00 0.00 63 1019.8
20260831040901 74 201 0.0 0.0 0.00 0.00 0.00 63 1019.8
20260831040126 75 117 0.0 0.0 0.00 0.00 0.00 63 1019.8
20260831035819 75 117 0.0 0.0 0.00 0.00 0.00 63 1019.9
20260831035506 75 117 0.0 1.0 0.00 0.00 0.00 62 1019.9
20260831035157 75 117 0.0 1.0 0.00 0.00 0.00 62 1020.0
20260831034857 74 232 0.0 0.0 0.00 0.00 0.00 62 1020.2
20260831034549 74 267 0.0 1.0 0.00 0.00 0.00 61 1020.2
20260831033811 74 61 0.0 0.0 0.00 0.00 0.00 62 1020.2
20260831033500 74 61 0.0 0.0 0.00 0.00 0.00 62 1020.2
20260831033153 74 61 0.0 1.0 0.00 0.00 0.00 62 1020.1
20260831032842 74 16 0.0 1.0 0.00 0.00 0.00 62 1020.2
20260831032532 74 67 0.0 1.0 0.00 0.00 0.00 62 1020.2
20260831032230 74 12 0.0 0.0 0.00 0.00 0.00 62 1020.3
20260831031926 74 10 0.0 0.0 0.00 0.00 0.00 62 1020.3
20260831031616 74 22 0.0 0.0 0.00 0.00 0.00 62 1020.3
20260831031304 74 22 0.0 0.0 0.00 0.00 0.00 62 1020.2
20260831031008 74 22 0.0 0.0 0.00 0.00 0.00 62 1020.2
20260831030705 75 22 0.0 0.0 0.00 0.00 0.00 62 1020.2
20260831030353 75 22 0.0 1.0 0.00 0.00 0.00 62 1020.2
20260831030051 75 355 0.0 1.0 0.00 0.00 0.00 62 1020.2
20260831025752 75 43 0.0 1.0 0.00 0.00 0.00 63 1020.2
20260831025443 75 88 0.0 1.0 0.00 0.00 0.00 63 1020.2
20260831025144 75 85 0.0 1.0 0.00 0.00 0.00 63 1020.2
20260831024840 75 74 0.0 1.0 0.00 0.00 0.00 63 1020.2
20260831024527 75 304 0.0 0.0 0.00 0.00 0.00 63 1020.3
20260831023344 75 304 0.0 0.0 0.00 0.00 0.00 62 1020.3
20260831023047 75 304 0.0 0.0 0.00 0.00 0.00 62 1020.3
20260831022737 76 304 0.0 0.0 0.00 0.00 0.00 62 1020.3
20260831022433 76 304 0.0 0.0 0.00 0.00 0.00 62 1020.2
20260831022134 76 304 0.0 0.0 0.00 0.00 0.00 62 1020.3
20260831021837 76 304 0.0 0.0 0.00 0.00 0.00 62 1020.3
20260831021115 76 304 0.0 0.0 0.00 0.00 0.00 62 1020.3
20260831020354 76 304 0.0 2.0 0.00 0.00 0.00 62 1020.3
20260831020054 76 291 0.0 2.0 0.00 0.00 0.00 62 1020.3
20260831015749 76 291 0.0 2.0 0.00 0.00 0.00 62 1020.3
20260831015449 76 291 0.0 2.0 0.00 0.00 0.00 62 1020.3
20260831014724 76 9 0.0 2.0 0.00 0.00 0.00 62 1020.3
20260831014413 76 257 0.0 0.0 0.00 0.00 0.00 61 1020.3
20260831013639 76 257 0.0 0.0 0.00 0.00 0.00 61 1020.3
20260831013336 76 257 0.0 1.0 0.00 0.00 0.00 61 1020.2
20260831013026 76 245 0.0 0.0 0.00 0.00 0.00 61 1020.1
20260831012726 76 158 0.0 0.0 0.00 0.00 0.00 61 1020.1
20260831012418 77 158 0.0 0.0 0.00 0.00 0.00 61 1020.0
20260831012116 77 158 0.0 0.0 0.00 0.00 0.00 61 1020.0
20260831011818 77 158 0.0 0.0 0.00 0.00 0.00 60 1020.0
20260831011102 77 158 0.0 0.0 0.00 0.00 0.00 60 1019.8
20260831010748 77 158 0.0 0.0 0.00 0.00 0.00 60 1019.8
20260831010436 77 158 0.0 0.0 0.00 0.00 0.00 60 1019.8
20260831010127 77 158 0.0 0.0 0.00 0.00 0.00 59 1019.8
20260831005402 77 158 0.0 0.0 0.00 0.00 0.00 59 1019.7
20260831004635 77 158 0.0 0.0 0.00 0.00 0.00 59 1019.6
20260831003902 77 158 0.0 0.0 0.00 0.00 0.00 58 1019.5
20260831003140 78 158 0.0 0.0 0.00 0.00 0.00 58 1019.1
20260831002838 78 158 0.0 0.0 0.00 0.00 0.00 57 1019.1
20260831002107 78 158 0.0 0.0 0.00 0.00 0.00 57 1019.0
20260831001344 78 158 0.0 0.0 0.00 0.00 0.00 57 1018.9
20260831001046 78 158 0.0 1.0 0.00 0.00 0.00 57 1018.8
20260831000740 78 200 0.0 1.0 0.00 0.00 0.00 56 1018.7
20260831000440 78 199 0.0 1.0 0.00 0.00 0.00 57 1018.7
20260831000142 78 147 0.0 0.0 0.00 0.00 0.00 57 1018.7
20260830235845 79 136 0.0 0.0 0.00 0.00 0.00 57 1018.7
20260830235534 79 136 0.0 0.0 0.00 0.00 0.00 57 1018.7
20260830235233 79 136 0.0 0.0 0.00 0.00 0.00 57 1018.6
20260830234933 79 77 0.0 0.0 0.00 0.00 0.00 56 1018.6
20260830234628 79 77 0.0 0.0 0.00 0.00 0.00 56 1018.7
20260830234318 79 77 0.0 0.0 0.00 0.00 0.00 56 1018.5
20260830234010 79 77 0.0 0.0 0.00 0.00 0.00 56 1018.7
20260830233714 79 77 0.0 0.0 0.00 0.00 0.00 56 1018.7
20260830233417 79 77 0.0 0.0 0.00 0.00 0.00 56 1018.7
20260830233120 79 77 0.0 0.0 0.00 0.00 0.00 55 1018.7
20260830232809 80 77 0.0 0.0 0.00 0.00 0.00 55 1018.8
20260830232512 80 77 0.0 0.0 0.00 0.00 0.00 55 1018.8
20260830232212 80 77 0.0 0.0 0.00 0.00 0.00 55 1018.8
20260830231910 80 77 0.0 0.0 0.00 0.00 0.00 55 1018.8
20260830231601 80 77 0.0 0.0 0.00 0.00 0.00 55 1018.8
20260830231301 80 77 0.0 0.0 0.00 0.00 0.00 54 1018.8
20260830230948 80 77 0.0 0.0 0.00 0.00 0.00 54 1018.8
20260830230650 80 77 0.0 0.0 0.00 0.00 0.00 54 1018.8
20260830230352 80 77 0.0 0.0 0.00 0.00 0.00 53 1018.8
20260830230051 80 77 0.0 0.0 0.00 0.00 0.00 53 1018.8
20260830225753 81 77 0.0 0.0 0.00 0.00 0.00 53 1018.8
20260830225443 81 77 0.0 0.0 0.00 0.00 0.00 53 1018.8
20260830224727 81 77 0.0 0.0 0.00 0.00 0.00 52 1018.8
20260830224421 81 77 0.0 0.0 0.00 0.00 0.00 51 1018.9
20260830224115 81 77 0.0 0.0 0.00 0.00 0.00 51 1018.8
20260830223804 82 77 0.0 0.0 0.00 0.00 0.00 51 1018.7
20260830223500 82 77 0.0 1.0 0.00 0.00 0.00 50 1018.8
20260830223155 82 13 0.0 3.0 0.00 0.00 0.00 51 1018.8
20260830222858 82 13 0.0 3.0 0.00 0.00 0.00 50 1018.9
20260830221259 83 62 1.0 5.0 0.00 0.00 0.00 49 1018.8
20260830221001 83 80 1.0 5.0 0.00 0.00 0.00 49 1018.8
20260830220649 83 11 1.0 5.0 0.00 0.00 0.00 48 1018.9
20260830220339 83 91 1.0 5.0 0.00 0.00 0.00 48 1018.8
20260830220043 84 72 1.0 5.0 0.00 0.00 0.00 48 1018.6
20260830215746 84 316 1.0 5.0 0.00 0.00 0.00 47 1018.7
20260830215432 84 45 0.0 5.0 0.00 0.00 0.00 48 1018.5
20260830215134 84 338 0.0 2.0 0.00 0.00 0.00 49 1018.6
20260830214357 84 5 0.0 2.0 0.00 0.00 0.00 48 1018.5
20260830213624 85 39 0.0 5.0 0.00 0.00 0.00 47 1018.5
20260830213314 85 52 0.0 5.0 0.00 0.00 0.00 48 1018.5
20260830213013 85 59 1.0 5.0 0.00 0.00 0.00 48 1018.6
20260830212247 85 329 2.0 5.0 0.00 0.00 0.00 46 1018.5
20260830211942 85 281 1.0 5.0 0.00 0.00 0.00 47 1018.4
20260830211212 85 300 0.0 3.0 0.00 0.00 0.00 46 1018.4
20260830210015 85 25 1.0 3.0 0.00 0.00 0.00 46 1018.4
20260830205710 86 283 1.0 5.0 0.00 0.00 0.00 47 1018.5
20260830204953 86 300 1.0 5.0 0.00 0.00 0.00 47 1018.5
20260830204645 86 273 1.0 5.0 0.00 0.00 0.00 46 1018.4
20260830204343 86 298 1.0 5.0 0.00 0.00 0.00 47 1018.5
20260830204043 86 288 1.0 5.0 0.00 0.00 0.00 45 1018.5
20260830203317 86 331 1.0 7.0 0.00 0.00 0.00 47 1018.6
20260830203016 87 288 1.0 7.0 0.00 0.00 0.00 47 1018.6
20260830202713 87 264 2.0 7.0 0.00 0.00 0.00 48 1018.5
20260830202401 86 210 2.0 7.0 0.00 0.00 0.00 50 1018.6
20260830202102 86 281 1.0 7.0 0.00 0.00 0.00 48 1018.5
20260830201322 86 139 1.0 6.0 0.00 0.00 0.00 49 1018.6
20260830201023 86 338 2.0 6.0 0.00 0.00 0.00 49 1018.6
20260830200725 86 297 2.0 6.0 0.00 0.00 0.00 49 1018.5
20260830200415 86 283 2.0 6.0 0.00 0.00 0.00 48 1018.5
20260830200104 86 278 1.0 5.0 0.00 0.00 0.00 48 1018.5
20260830195804 86 286 1.0 5.0 0.00 0.00 0.00 48 1018.6
20260830195459 86 292 1.0 5.0 0.00 0.00 0.00 50 1018.5
20260830194727 85 286 0.0 5.0 0.00 0.00 0.00 50 1018.7
20260830193956 86 236 1.0 6.0 0.00 0.00 0.00 51 1018.8
20260830193649 86 188 1.0 6.0 0.00 0.00 0.00 50 1018.9
20260830192924 86 270 2.0 6.0 0.00 0.00 0.00 51 1019.0
20260830192623 86 259 2.0 6.0 0.00 0.00 0.00 50 1018.9
20260830192322 86 205 1.0 6.0 0.00 0.00 0.00 49 1018.9
20260830192014 86 200 1.0 5.0 0.00 0.00 0.00 52 1018.9
20260830190006 87 306 1.0 6.0 0.00 0.00 0.00 48 1019.5
20260830185242 87 277 1.0 10.0 0.00 0.00 0.00 48 1019.7
20260830184937 87 176 2.0 10.0 0.00 0.00 0.00 47 1019.8
20260830184634 87 130 2.0 10.0 0.00 0.00 0.00 50 1019.8
20260830184329 87 242 3.0 10.0 0.00 0.00 0.00 48 1019.9
20260830184020 87 5 4.0 10.0 0.00 0.00 0.00 47 1019.9
20260830183714 87 196 3.0 10.0 0.00 0.00 0.00 49 1019.9
20260830183405 87 297 3.0 10.0 0.00 0.00 0.00 48 1020.0
20260830183108 87 265 2.0 7.0 0.00 0.00 0.00 48 1019.9
20260830182804 87 165 2.0 7.0 0.00 0.00 0.00 48 1020.0
20260830182503 87 183 2.0 6.0 0.00 0.00 0.00 49 1020.0
20260830182202 87 265 2.0 6.0 0.00 0.00 0.00 47 1020.0
20260830181858 87 252 1.0 6.0 0.00 0.00 0.00 49 1020.1
20260830181547 86 277 1.0 3.0 0.00 0.00 0.00 51 1020.0
20260830181242 86 182 3.0 3.0 0.00 0.00 0.00 50 1020.1
20260830170949 84 204 2.0 9.0 0.00 0.00 0.00 53 1020.9
20260830170649 84 204 2.0 9.0 0.00 0.00 0.00 53 1020.9
20260830170340 84 204 2.0 9.0 0.00 0.00 0.00 53 1020.9
20260830165619 83 216 1.0 7.0 0.00 0.00 0.00 53 1021.0
20260830165321 83 251 2.0 7.0 0.00 0.00 0.00 54 1021.1
20260830165017 83 216 2.0 7.0 0.00 0.00 0.00 54 1021.0
20260830164711 83 349 2.0 6.0 0.00 0.00 0.00 55 1020.9
20260830164412 83 167 2.0 6.0 0.00 0.00 0.00 55 1021.0
20260830163637 82 263 1.0 6.0 0.00 0.00 0.00 55 1021.1
20260830163334 82 286 1.0 6.0 0.00 0.00 0.00 55 1021.1
20260830163030 81 264 2.0 6.0 0.00 0.00 0.00 55 1021.2
20260830162722 81 178 2.0 9.0 0.00 0.00 0.00 56 1021.2
20260830162425 81 233 2.0 9.0 0.00 0.00 0.00 55 1021.1
20260830162116 81 200 2.0 9.0 0.00 0.00 0.00 54 1021.2
20260830161805 81 238 3.0 9.0 0.00 0.00 0.00 55 1021.2
20260830161506 81 253 2.0 9.0 0.00 0.00 0.00 54 1021.2
20260830161208 81 157 2.0 9.0 0.00 0.00 0.00 54 1021.3
20260830160856 81 182 2.0 7.0 0.00 0.00 0.00 54 1021.3
20260830160547 81 336 2.0 7.0 0.00 0.00 0.00 54 1021.3
20260830160236 80 179 2.0 7.0 0.00 0.00 0.00 54 1021.3
20260830155932 80 175 1.0 7.0 0.00 0.00 0.00 55 1021.3
20260830155625 80 140 1.0 7.0 0.00 0.00 0.00 54 1021.3
20260830155318 80 223 1.0 6.0 0.00 0.00 0.00 55 1021.5
20260830155018 79 263 1.0 6.0 0.00 0.00 0.00 59 1021.6
20260830154721 79 324 1.0 6.0 0.00 0.00 0.00 55 1021.5
20260830154417 78 178 1.0 6.0 0.00 0.00 0.00 56 1021.6
20260830154117 78 148 2.0 6.0 0.00 0.00 0.00 56 1021.7
20260830153352 77 150 2.0 7.0 0.00 0.00 0.00 58 1021.9
20260830153049 76 202 2.0 7.0 0.00 0.00 0.00 58 1021.9
20260830152744 76 302 2.0 7.0 0.00 0.00 0.00 58 1021.9
20260830152011 75 263 2.0 8.0 0.00 0.00 0.00 58 1021.9
20260830151659 75 329 2.0 8.0 0.00 0.00 0.00 59 1021.9
20260830151352 75 348 2.0 8.0 0.00 0.00 0.00 59 1021.9
20260830151052 75 323 1.0 8.0 0.00 0.00 0.00 59 1021.9
20260830150752 75 288 1.0 8.0 0.00 0.00 0.00 58 1021.9
20260830150440 74 237 1.0 6.0 0.00 0.00 0.00 58 1021.9
20260830150129 74 342 2.0 6.0 0.00 0.00 0.00 59 1021.8
20260830145826 74 186 1.0 6.0 0.00 0.00 0.00 58 1021.8
20260830145519 74 283 2.0 8.0 0.00 0.00 0.00 58 1021.8
20260830145205 74 250 2.0 8.0 0.00 0.00 0.00 57 1021.9
20260830144856 74 321 2.0 8.0 0.00 0.00 0.00 58 1021.9
20260830144548 74 323 2.0 8.0 0.00 0.00 0.00 58 1021.8
20260830144246 74 246 2.0 8.0 0.00 0.00 0.00 58 1021.8
20260830143533 73 347 1.0 6.0 0.00 0.00 0.00 58 1021.8
20260830142821 73 255 1.0 6.0 0.00 0.00 0.00 59 1021.8
20260830142516 73 173 2.0 6.0 0.00 0.00 0.00 59 1021.8
20260830142209 73 187 1.0 6.0 0.00 0.00 0.00 59 1021.9
20260830141907 73 298 1.0 6.0 0.00 0.00 0.00 59 1022.1
20260830141554 72 325 1.0 5.0 0.00 0.00 0.00 59 1022.1
20260830141253 72 284 1.0 7.0 0.00 0.00 0.00 59 1022.1
20260830140949 72 289 1.0 7.0 0.00 0.00 0.00 59 1022.2
20260830140636 72 269 1.0 7.0 0.00 0.00 0.00 59 1022.2
20260830140328 72 49 1.0 7.0 0.00 0.00 0.00 59 1022.2
20260830140032 71 9 2.0 7.0 0.00 0.00 0.00 59 1022.1
20260830135321 71 16 1.0 7.0 0.00 0.00 0.00 60 1022.1
20260830135011 71 297 1.0 7.0 0.00 0.00 0.00 59 1022.1
20260830134239 70 177 1.0 6.0 0.00 0.00 0.00 60 1022.1
20260830133940 70 323 1.0 6.0 0.00 0.00 0.00 59 1022.1
20260830133641 69 283 0.0 3.0 0.00 0.00 0.00 60 1022.1
20260830133338 69 323 0.0 3.0 0.00 0.00 0.00 60 1022.1
20260830133032 69 42 0.0 2.0 0.00 0.00 0.00 60 1022.1
20260830132307 68 294 0.0 2.0 0.00 0.00 0.00 60 1022.3
20260830131955 68 251 0.0 1.0 0.00 0.00 0.00 60 1022.4
20260830131643 68 186 0.0 0.0 0.00 0.00 0.00 61 1022.3
20260830130922 67 209 0.0 1.0 0.00 0.00 0.00 61 1022.4
20260830130620 67 154 0.0 0.0 0.00 0.00 0.00 61 1022.5
20260830130318 67 190 0.0 2.0 0.00 0.00 0.00 61 1022.5
20260830130010 67 234 0.0 0.0 0.00 0.00 0.00 61 1022.5
20260830125244 67 263 0.0 0.0 0.00 0.00 0.00 62 1022.7
20260830124045 66 308 0.0 0.0 0.00 0.00 0.00 62 1022.7
20260830122453 65 344 0.0 0.0 0.00 0.00 0.00 64 1022.6
20260830122147 65 344 0.0 0.0 0.00 0.00 0.00 64 1022.5
20260830121418 65 344 0.0 0.0 0.00 0.00 0.00 64 1022.5
20260830120237 64 330 0.0 1.0 0.00 0.00 0.00 65 1022.6
20260830115923 64 299 0.0 1.0 0.00 0.00 0.00 65 1022.6
20260830115625 63 297 0.0 0.0 0.00 0.00 0.00 65 1022.7
20260830115317 63 297 0.0 0.0 0.00 0.00 0.00 65 1022.6
20260830115007 63 297 0.0 0.0 0.00 0.00 0.00 64 1022.6
20260830114657 63 297 0.0 0.0 0.00 0.00 0.00 64 1022.6
20260830114400 63 297 0.0 0.0 0.00 0.00 0.00 64 1022.6
20260830114103 63 297 0.0 0.0 0.00 0.00 0.00 64 1022.6
20260830113803 63 297 0.0 0.0 0.00 0.00 0.00 64 1022.7
20260830113450 63 296 0.0 0.0 0.00 0.00 0.00 64 1022.7
20260830113152 63 297 0.0 0.0 0.00 0.00 0.00 64 1022.6
20260830112841 63 296 0.0 0.0 0.00 0.00 0.00 64 1022.7
20260830112531 63 297 0.0 0.0 0.00 0.00 0.00 64 1022.8
20260830112230 63 296 0.0 0.0 0.00 0.00 0.00 64 1022.8
20260830111928 63 297 0.0 0.0 0.00 0.00 0.00 64 1022.7
20260830111631 63 297 0.0 0.0 0.00 0.00 0.00 64 1022.8
20260830111329 63 296 0.0 0.0 0.00 0.00 0.00 64 1022.8
20260830111020 63 297 0.0 1.0 0.00 0.00 0.00 64 1022.7
20260830110719 63 297 0.0 0.0 0.00 0.00 0.00 64 1022.7
20260830110415 63 297 0.0 0.0 0.00 0.00 0.00 64 1022.6
20260830110112 63 297 0.0 0.0 0.00 0.00 0.00 64 1022.6
20260830105758 63 297 0.0 0.0 0.00 0.00 0.00 64 1022.6
20260830105458 63 297 0.0 0.0 0.00 0.00 0.00 64 1022.5
20260830105202 63 297 0.0 0.0 0.00 0.00 0.00 64 1022.6
20260830104013 63 302 0.0 1.0 0.00 0.00 0.00 64 1022.6
20260830103717 63 298 0.0 0.0 0.00 0.00 0.00 64 1022.6
20260830103419 63 298 0.0 0.0 0.00 0.00 0.00 64 1022.7